Location: Newark
(45.4422°N, 16.2769°E)
Time: 23:25:35
(UTC+00:00)

S-56A Canister/Altair - Pass Details

Date: 16 December 2019
Orbit: 634 x 2498 km, 38.9° (Epoch: 28 January)

Event Time Altitude Azimuth Distance (km) Brightness Sun altitude
Rises 04:38:03 0° 179° (S) 4,795 11.8 -18.4°
Reaches altitude 10° 04:42:46 10° 159° (SSE) 4,173 11.8 -17.6°
Maximum altitude 04:48:52 16° 126° (SE) 4,089 12.2 -16.6°
Drops below altitude 10° 04:55:50 10° 95° (E) 4,912 12.9 -15.4°
Sets 05:02:12 0° 78° (ENE) 6,114 13.2 -14.4°
